GW3736 Weather Reports


time (UTC)temp
C
wind
direction
speed
KPH
gust
KPH
rain 1hr
cm
rain 24hr
cm
rain mn
cm
humidity
%
barometer
mb
20260505124531 15 243 6.4 17.7 0.00 0.30 0.10 72 999.2
20260505123527 15 266 9.7 20.9 0.00 0.30 0.10 73 999.8
20260505122523 15 260 4.8 9.7 0.00 0.30 0.10 74 999.5
20260505121519 15 258 6.4 14.5 0.00 0.30 0.10 74 999.6
20260505120535 15 238 4.8 11.3 0.00 0.30 0.10 74 999.3
20260505115551 15 259 8.0 14.5 0.00 0.30 0.10 75 999.4
20260505114527 15 251 6.4 12.9 0.00 0.30 0.10 75 999.2
20260505113603 15 269 6.4 14.5 0.00 0.30 0.10 75 998.9
20260505112539 14 270 9.7 22.5 0.00 0.30 0.10 75 998.5
20260505111615 14 264 6.4 16.1 0.00 0.30 0.10 75 998.3
20260505110531 14 264 9.7 17.7 0.00 0.30 0.10 76 998.2
20260505101550 15 258 8.0 16.1 0.00 0.30 0.10 76 997.2
20260505100527 15 250 9.7 22.5 0.00 0.30 0.10 76 997.1
20260505095522 15 246 11.3 24.1 0.00 0.30 0.10 76 997.0
20260505094519 15 258 12.9 27.4 0.00 0.30 0.10 76 996.9
20260505093555 15 257 12.9 24.1 0.00 0.30 0.10 77 996.7
20260505092530 15 256 12.9 24.1 0.00 0.30 0.10 77 996.8
20260505091527 15 245 11.3 20.9 0.00 0.30 0.10 77 996.6
20260505090522 15 261 11.3 25.7 0.00 0.30 0.10 77 996.7
20260505085519 15 250 9.7 27.4 0.00 0.30 0.10 77 996.8
20260505084534 15 247 8.0 17.7 0.00 0.30 0.10 77 996.6
20260505083551 15 255 11.3 22.5 0.00 0.30 0.10 77 996.5
20260505082526 15 239 9.7 20.9 0.00 0.30 0.10 77 996.4
20260505081522 15 257 9.7 20.9 0.00 0.30 0.10 77 996.3
20260505080538 15 252 9.7 22.5 0.00 0.30 0.10 76 996.1
20260505075534 15 250 9.7 17.7 0.00 0.30 0.10 76 995.8
20260505074530 15 253 9.7 17.7 0.00 0.30 0.10 76 995.3
20260505073546 15 244 6.4 14.5 0.00 0.30 0.10 76 994.9
20260505072542 15 254 8.0 16.1 0.00 0.30 0.10 76 995.3
20260505071518 15 256 8.0 20.9 0.00 0.30 0.10 76 995.4
20260505070534 15 258 9.7 17.7 0.00 0.30 0.10 76 995.5
20260505065531 15 266 9.7 20.9 0.00 0.30 0.10 76 995.4
20260505064526 15 257 8.0 16.1 0.00 0.30 0.10 76 995.8
20260505063522 15 263 8.0 14.5 0.00 0.30 0.10 76 995.9
20260505062518 15 252 8.0 16.1 0.00 0.30 0.10 77 995.7
20260505061534 15 249 6.4 12.9 0.08 0.30 0.10 77 995.4
20260505060530 15 226 6.4 14.5 0.10 0.30 0.10 75 995.5
20260505055525 15 226 4.8 14.5 0.10 0.30 0.10 75 995.8
20260505054521 15 226 3.2 14.5 0.10 0.30 0.10 74 996.1
20260505053517 16 265 8.0 14.5 0.10 0.30 0.10 73 995.9
20260505052533 17 269 11.3 24.1 0.10 0.30 0.10 72 996.3
20260505051529 18 253 20.9 48.3 0.00 0.23 0.00 66 996.7
20260505050525 18 263 14.5 29.0 0.00 0.23 0.00 66 996.5
20260505041525 15 251 8.0 24.1 0.00 0.23 0.00 76 996.1
20260505040520 15 202 3.2 9.7 0.00 0.23 0.00 76 995.8
20260505035516 15 162 4.8 6.4 0.00 0.23 0.23 76 995.9
20260505034532 15 163 6.4 12.9 0.00 0.23 0.23 75 995.9
20260505033529 15 165 6.4 14.5 0.00 0.23 0.23 75 996.0
20260505032524 15 178 6.4 14.5 0.00 0.23 0.23 74 996.3
20260505031520 16 159 6.4 14.5 0.00 0.23 0.23 72 996.6
20260505030516 16 181 8.0 20.9 0.05 0.23 0.23 73 996.6
20260505025532 16 224 6.4 12.9 0.05 0.23 0.23 74 996.6
20260505024608 16 228 6.4 12.9 0.13 0.23 0.23 75 996.6
20260505023524 16 258 4.8 11.3 0.13 0.23 0.23 75 996.5
20260505022520 16 247 4.8 16.1 0.15 0.23 0.23 75 996.6
20260505021516 16 267 3.2 9.7 0.18 0.20 0.20 75 996.6
20260505020552 16 199 4.8 11.3 0.18 0.18 0.18 74 996.6
20260505015528 16 260 4.8 20.9 0.18 0.18 0.18 74 996.5
20260505014524 16 184 3.2 12.9 0.10 0.10 0.10 72 996.6
20260505013520 17 173 1.6 3.2 0.08 0.10 0.10 71 996.4
20260505012536 17 179 1.6 6.4 0.05 0.05 0.05 70 996.6
20260505011532 17 303 4.8 9.7 0.00 0.03 0.03 71 996.6
20260505010527 17 262 6.4 16.1 0.00 0.00 0.00 70 996.3
20260505005523 17 268 4.8 14.5 0.00 0.00 0.00 69 996.3
20260505004519 17 241 4.8 14.5 0.00 0.00 0.00 69 996.1
20260505003556 17 255 8.0 16.1 0.00 0.00 0.00 68 995.9
20260505002531 17 256 6.4 14.5 0.00 0.00 0.00 66 995.7
20260505001527 18 236 9.7 24.1 0.00 0.00 0.00 62 995.9
20260505000523 19 214 9.7 35.4 0.00 0.00 0.00 58 995.3
20260504235518 20 138 4.8 9.7 0.00 0.00 0.00 56 995.1
20260504234535 20 151 6.4 11.3 0.00 0.00 0.00 54 995.2
20260504233531 22 148 8.0 16.1 0.00 0.00 0.00 51 995.2
20260504232527 22 169 9.7 17.7 0.00 0.00 0.00 48 995.1
20260504231523 23 228 8.0 24.1 0.00 0.00 0.00 48 994.9
20260504230519 23 228 9.7 17.7 0.00 0.00 0.00 48 994.9
20260504225535 22 237 9.7 25.7 0.00 0.00 0.00 48 995.1
20260504224531 22 189 4.8 17.7 0.00 0.00 0.00 49 995.5
20260504223527 21 172 8.0 17.7 0.00 0.00 0.00 51 995.5
20260504222523 21 161 8.0 17.7 0.00 0.00 0.00 51 995.6
20260504221519 21 164 4.8 14.5 0.00 0.00 0.00 50 995.7
20260504220535 21 190 8.0 16.1 0.00 0.00 0.00 49 995.9
20260504215531 22 178 8.0 17.7 0.00 0.00 0.00 48 995.9
20260504214527 22 170 8.0 20.9 0.00 0.00 0.00 46 996.0
20260504213523 22 166 8.0 22.5 0.00 0.00 0.00 45 996.3
20260504212519 22 185 9.7 25.7 0.00 0.00 0.00 46 996.4
20260504211515 22 178 6.4 17.7 0.00 0.00 0.00 46 996.3
20260504210552 22 186 11.3 24.1 0.00 0.00 0.00 47 996.4
20260504205547 22 201 11.3 25.7 0.00 0.00 0.00 46 996.5
20260504204524 21 158 9.7 22.5 0.00 0.00 0.00 47 996.6
20260504203519 22 200 11.3 27.4 0.00 0.00 0.00 46 996.7
20260504202515 22 164 11.3 38.6 0.00 0.00 0.00 44 996.6
20260504201531 22 168 12.9 29.0 0.00 0.00 0.00 43 996.6
20260504200527 23 179 9.7 22.5 0.00 0.00 0.00 41 996.7
20260504195523 23 236 8.0 22.5 0.00 0.00 0.00 37 996.7
20260504194519 23 218 11.3 29.0 0.00 0.00 0.00 38 996.7
20260504193515 22 227 11.3 35.4 0.00 0.00 0.00 40 996.8
20260504192531 22 167 11.3 33.8 0.00 0.00 0.00 47 997.1
20260504191527 22 197 9.7 17.7 0.00 0.00 0.00 50 997.1
20260504190523 21 192 11.3 29.0 0.00 0.00 0.00 50 997.4
20260504185559 21 198 11.3 24.1 0.00 0.00 0.00 51 997.6
20260504184515 22 176 8.0 20.9 0.00 0.00 0.00 52 997.7
20260504183531 21 185 8.0 24.1 0.00 0.00 0.00 51 997.6
20260504182528 22 157 14.5 25.7 0.00 0.00 0.00 50 997.6
20260504181523 22 158 12.9 29.0 0.00 0.00 0.00 51 997.8
20260504180520 22 159 11.3 29.0 0.00 0.00 0.00 52 998.0
20260504175535 22 168 12.9 22.5 0.00 0.00 0.00 53 998.2
20260504174531 21 173 9.7 24.1 0.00 0.00 0.00 53 998.5
20260504173527 22 171 12.9 25.7 0.00 0.00 0.00 53 998.7
20260504172604 21 153 11.3 20.9 0.00 0.00 0.00 52 998.8
20260504171520 21 193 12.9 24.1 0.00 0.00 0.00 53 998.8
20260504170516 21 197 12.9 24.1 0.00 0.00 0.00 52 999.0
20260504150527 18 240 4.8 20.9 0.00 0.00 0.00 54 1000.1
20260504140544 16 238 3.2 11.3 0.00 0.00 0.00 60 1000.4